owner,sensor,date,latitude,longitude,vertical_datum,sea_water_practical_salinity,qcFlag 
NERRS,ioos:station:NOAA.NERRS:gndbhwq:1,2014-03-01T00:00:00Z,30.4178,-88.4054,1.3,8.8,1111122 
NERRS,ioos:station:NOAA.NERRS:gndbhwq:1,2014-03-01T01:00:00Z,30.4178,-88.4054,1.37,11.3,1111122 
NERRS,ioos:station:NOAA.NERRS:gndbhwq:1,2014-03-01T02:00:00Z,30.4178,-88.4054,1.37,10.9,1111122 
NERRS,ioos:station:NOAA.NERRS:gndbhwq:1,2014-03-01T03:00:00Z,30.4178,-88.4054,1.36,12.0,1111122 
NERRS,ioos:station:NOAA.NERRS:gndbhwq:1,2014-03-01T04:00:00Z,30.4178,-88.4054,1.41,15.3,1111122 
NERRS,ioos:station:NOAA.NERRS:gndbhwq:1,2014-03-01T05:00:00Z,30.4178,-88.4054,1.44,16.8,1111122 
NERRS,ioos:station:NOAA.NERRS:gndbhwq:1,2014-03-01T06:00:00Z,30.4178,-88.4054,1.43,15.8,1111122 
NERRS,ioos:station:NOAA.NERRS:gndbhwq:1,2014-03-01T07:00:00Z,30.4178,-88.4054,1.37,14.9,1111122 
NERRS,ioos:station:NOAA.NERRS:gndbhwq:1,2014-03-01T08:00:00Z,30.4178,-88.4054,1.27,15.2,1111122 
NERRS,ioos:station:NOAA.NERRS:gndbhwq:1,2014-03-01T09:00:00Z,30.4178,-88.4054,1.21,14.6,1111122 
NERRS,ioos:station:NOAA.NERRS:gndbhwq:1,2014-03-01T10:00:00Z,30.4178,-88.4054,1.11,13.1,1111122 
NERRS,ioos:station:NOAA.NERRS:gndbhwq:1,2014-03-01T11:00:00Z,30.4178,-88.4054,1.05,2.1,1111122 
NERRS,ioos:station:NOAA.NERRS:gndbhwq:1,2014-03-01T12:00:00Z,30.4178,-88.4054,1.02,0.7,1111122 
NERRS,ioos:station:NOAA.NERRS:gndbhwq:1,2014-03-01T13:00:00Z,30.4178,-88.4054,1.11,16.4,1111122 
NERRS,ioos:station:NOAA.NERRS:gndbhwq:1,2014-03-01T14:00:00Z,30.4178,-88.4054,1.08,17.4,1111122 
NERRS,ioos:station:NOAA.NERRS:gndbhwq:1,2014-03-01T15:00:00Z,30.4178,-88.4054,1.06,16.7,1111122 
NERRS,ioos:station:NOAA.NERRS:gndbhwq:1,2014-03-01T16:00:00Z,30.4178,-88.4054,1.1,15.4,1111122 
NERRS,ioos:station:NOAA.NERRS:gndbhwq:1,2014-03-01T17:00:00Z,30.4178,-88.4054,1.1,16.7,1111122 
NERRS,ioos:station:NOAA.NERRS:gndbhwq:1,2014-03-01T18:00:00Z,30.4178,-88.4054,1.18,17.0,1111122 
NERRS,ioos:station:NOAA.NERRS:gndbhwq:1,2014-03-01T19:00:00Z,30.4178,-88.4054,1.19,17.3,1111122 
NERRS,ioos:station:NOAA.NERRS:gndbhwq:1,2014-03-01T20:00:00Z,30.4178,-88.4054,1.17,4.0,1111122 
NERRS,ioos:station:NOAA.NERRS:gndbhwq:1,2014-03-01T21:00:00Z,30.4178,-88.4054,1.14,0.3,1111122 
NERRS,ioos:station:NOAA.NERRS:gndbhwq:1,2014-03-01T22:00:00Z,30.4178,-88.4054,1.1,0.3,1111122 
NERRS,ioos:station:NOAA.NERRS:gndbhwq:1,2014-03-01T23:00:00Z,30.4178,-88.4054,1.13,0.3,1111122 
NERRS,ioos:station:NOAA.NERRS:gndbhwq:1,2014-03-02T00:00:00Z,30.4178,-88.4054,1.16,0.2,1111122 
NERRS,ioos:station:NOAA.NERRS:gndbhwq:1,2014-03-02T01:00:00Z,30.4178,-88.4054,1.23,0.2,1111122 
NERRS,ioos:station:NOAA.NERRS:gndbhwq:1,2014-03-02T02:00:00Z,30.4178,-88.4054,1.26,13.5,1111122 
NERRS,ioos:station:NOAA.NERRS:gndbhwq:1,2014-03-02T03:00:00Z,30.4178,-88.4054,1.31,16.4,1111122 
NERRS,ioos:station:NOAA.NERRS:gndbhwq:1,2014-03-02T04:00:00Z,30.4178,-88.4054,1.3,17.3,1111122 
NERRS,ioos:station:NOAA.NERRS:gndbhwq:1,2014-03-02T05:00:00Z,30.4178,-88.4054,1.29,18.2,1111122 
NERRS,ioos:station:NOAA.NERRS:gndbhwq:1,2014-03-02T06:00:00Z,30.4178,-88.4054,1.32,18.8,1111122 
NERRS,ioos:station:NOAA.NERRS:gndbhwq:1,2014-03-02T07:00:00Z,30.4178,-88.4054,1.29,18.9,1111122 
NERRS,ioos:station:NOAA.NERRS:gndbhwq:1,2014-03-02T08:00:00Z,30.4178,-88.4054,1.31,18.9,1111122 
NERRS,ioos:station:NOAA.NERRS:gndbhwq:1,2014-03-02T09:00:00Z,30.4178,-88.4054,1.22,19.0,1111122 
NERRS,ioos:station:NOAA.NERRS:gndbhwq:1,2014-03-02T10:00:00Z,30.4178,-88.4054,1.17,18.9,1111122 
NERRS,ioos:station:NOAA.NERRS:gndbhwq:1,2014-03-02T11:00:00Z,30.4178,-88.4054,1.08,18.5,1111122 
NERRS,ioos:station:NOAA.NERRS:gndbhwq:1,2014-03-02T12:00:00Z,30.4178,-88.4054,1.11,19.1,1111122 
NERRS,ioos:station:NOAA.NERRS:gndbhwq:1,2014-03-02T13:00:00Z,30.4178,-88.4054,1.14,19.2,1111122 
NERRS,ioos:station:NOAA.NERRS:gndbhwq:1,2014-03-02T14:00:00Z,30.4178,-88.4054,1.19,19.1,1111122 
NERRS,ioos:station:NOAA.NERRS:gndbhwq:1,2014-03-02T15:00:00Z,30.4178,-88.4054,1.25,19.2,1111122 
NERRS,ioos:station:NOAA.NERRS:gndbhwq:1,2014-03-02T16:00:00Z,30.4178,-88.4054,1.23,18.7,1111122 
NERRS,ioos:station:NOAA.NERRS:gndbhwq:1,2014-03-02T17:00:00Z,30.4178,-88.4054,1.2,18.7,1111122 
NERRS,ioos:station:NOAA.NERRS:gndbhwq:1,2014-03-02T18:00:00Z,30.4178,-88.4054,1.2,18.5,1111122 
NERRS,ioos:station:NOAA.NERRS:gndbhwq:1,2014-03-02T19:00:00Z,30.4178,-88.4054,1.24,18.4,1111122 
NERRS,ioos:station:NOAA.NERRS:gndbhwq:1,2014-03-02T20:00:00Z,30.4178,-88.4054,1.19,18.3,1111122 
NERRS,ioos:station:NOAA.NERRS:gndbhwq:1,2014-03-02T21:00:00Z,30.4178,-88.4054,1.15,17.4,1111122 
NERRS,ioos:station:NOAA.NERRS:gndbhwq:1,2014-03-02T22:00:00Z,30.4178,-88.4054,1.11,0.5,1111122 
NERRS,ioos:station:NOAA.NERRS:gndbhwq:1,2014-03-02T23:00:00Z,30.4178,-88.4054,1.07,0.5,1111122 
NERRS,ioos:station:NOAA.NERRS:gndbhwq:1,2014-03-03T00:00:00Z,30.4178,-88.4054,1.04,0.4,1111122 
NERRS,ioos:station:NOAA.NERRS:gndbhwq:1,2014-03-03T01:00:00Z,30.4178,-88.4054,1.09,18.0,1111122 
NERRS,ioos:station:NOAA.NERRS:gndbhwq:1,2014-03-03T02:00:00Z,30.4178,-88.4054,1.18,18.5,1111122 
NERRS,ioos:station:NOAA.NERRS:gndbhwq:1,2014-03-03T03:00:00Z,30.4178,-88.4054,1.19,17.9,1111122 
NERRS,ioos:station:NOAA.NERRS:gndbhwq:1,2014-03-03T04:00:00Z,30.4178,-88.4054,1.32,17.9,1111122 
NERRS,ioos:station:NOAA.NERRS:gndbhwq:1,2014-03-03T05:00:00Z,30.4178,-88.4054,1.22,15.5,1111122 
NERRS,ioos:station:NOAA.NERRS:gndbhwq:1,2014-03-03T06:00:00Z,30.4178,-88.4054,1.25,15.5,1111122 
NERRS,ioos:station:NOAA.NERRS:gndbhwq:1,2014-03-03T07:00:00Z,30.4178,-88.4054,1.25,15.5,1111122 
NERRS,ioos:station:NOAA.NERRS:gndbhwq:1,2014-03-03T08:00:00Z,30.4178,-88.4054,1.23,18.1,1111122 
NERRS,ioos:station:NOAA.NERRS:gndbhwq:1,2014-03-03T09:00:00Z,30.4178,-88.4054,1.24,18.5,1111122 
NERRS,ioos:station:NOAA.NERRS:gndbhwq:1,2014-03-03T10:00:00Z,30.4178,-88.4054,1.17,17.9,1111122 
NERRS,ioos:station:NOAA.NERRS:gndbhwq:1,2014-03-03T11:00:00Z,30.4178,-88.4054,1.13,18.6,1111122 
NERRS,ioos:station:NOAA.NERRS:gndbhwq:1,2014-03-03T12:00:00Z,30.4178,-88.4054,1.19,18.6,1111122 
NERRS,ioos:station:NOAA.NERRS:gndbhwq:1,2014-03-03T13:00:00Z,30.4178,-88.4054,1.18,18.6,1111122 
NERRS,ioos:station:NOAA.NERRS:gndbhwq:1,2014-03-03T14:00:00Z,30.4178,-88.4054,1.25,18.8,1111122 
NERRS,ioos:station:NOAA.NERRS:gndbhwq:1,2014-03-03T15:00:00Z,30.4178,-88.4054,1.17,18.8,1111122 
NERRS,ioos:station:NOAA.NERRS:gndbhwq:1,2014-03-03T16:00:00Z,30.4178,-88.4054,0.97,18.2,1111122 
NERRS,ioos:station:NOAA.NERRS:gndbhwq:1,2014-03-03T17:00:00Z,30.4178,-88.4054,1.02,18.8,1111122 
NERRS,ioos:station:NOAA.NERRS:gndbhwq:1,2014-03-03T18:00:00Z,30.4178,-88.4054,0.89,18.6,1111122 
NERRS,ioos:station:NOAA.NERRS:gndbhwq:1,2014-03-03T19:00:00Z,30.4178,-88.4054,0.9,18.7,1111122 
NERRS,ioos:station:NOAA.NERRS:gndbhwq:1,2014-03-03T20:00:00Z,30.4178,-88.4054,0.82,18.4,1111122 
NERRS,ioos:station:NOAA.NERRS:gndbhwq:1,2014-03-03T21:00:00Z,30.4178,-88.4054,0.92,18.6,1111122 
NERRS,ioos:station:NOAA.NERRS:gndbhwq:1,2014-03-03T22:00:00Z,30.4178,-88.4054,0.99,18.6,1111122 
NERRS,ioos:station:NOAA.NERRS:gndbhwq:1,2014-03-03T23:00:00Z,30.4178,-88.4054,1.01,18.6,1111122 
NERRS,ioos:station:NOAA.NERRS:gndbhwq:1,2014-03-04T00:00:00Z,30.4178,-88.4054,0.87,18.3,1111122 
NERRS,ioos:station:NOAA.NERRS:gndbhwq:1,2014-03-04T01:00:00Z,30.4178,-88.4054,0.75,18.0,1111122 
NERRS,ioos:station:NOAA.NERRS:gndbhwq:1,2014-03-04T02:00:00Z,30.4178,-88.4054,0.72,17.8,1111122 
NERRS,ioos:station:NOAA.NERRS:gndbhwq:1,2014-03-04T03:00:00Z,30.4178,-88.4054,0.85,18.3,1111122 
NERRS,ioos:station:NOAA.NERRS:gndbhwq:1,2014-03-04T04:00:00Z,30.4178,-88.4054,0.84,18.2,1111122 
NERRS,ioos:station:NOAA.NERRS:gndbhwq:1,2014-03-04T05:00:00Z,30.4178,-88.4054,0.85,18.2,1111122 
NERRS,ioos:station:NOAA.NERRS:gndbhwq:1,2014-03-04T06:00:00Z,30.4178,-88.4054,1.0,18.1,1111122 
NERRS,ioos:station:NOAA.NERRS:gndbhwq:1,2014-03-04T07:00:00Z,30.4178,-88.4054,0.99,17.8,1111122 
NERRS,ioos:station:NOAA.NERRS:gndbhwq:1,2014-03-04T08:00:00Z,30.4178,-88.4054,1.05,17.6,1111122 
NERRS,ioos:station:NOAA.NERRS:gndbhwq:1,2014-03-04T09:00:00Z,30.4178,-88.4054,1.1,17.5,1111122 
NERRS,ioos:station:NOAA.NERRS:gndbhwq:1,2014-03-04T10:00:00Z,30.4178,-88.4054,1.09,17.1,1111122 
NERRS,ioos:station:NOAA.NERRS:gndbhwq:1,2014-03-04T11:00:00Z,30.4178,-88.4054,1.09,16.4,1111122 
NERRS,ioos:station:NOAA.NERRS:gndbhwq:1,2014-03-04T12:00:00Z,30.4178,-88.4054,1.09,16.0,1111122 
NERRS,ioos:station:NOAA.NERRS:gndbhwq:1,2014-03-04T13:00:00Z,30.4178,-88.4054,1.04,16.4,1111122 
NERRS,ioos:station:NOAA.NERRS:gndbhwq:1,2014-03-04T14:00:00Z,30.4178,-88.4054,1.15,17.2,1111122 
NERRS,ioos:station:NOAA.NERRS:gndbhwq:1,2014-03-04T15:00:00Z,30.4178,-88.4054,1.2,16.5,1111122 
NERRS,ioos:station:NOAA.NERRS:gndbhwq:1,2014-03-04T16:00:00Z,30.4178,-88.4054,1.34,16.3,1111122 
NERRS,ioos:station:NOAA.NERRS:gndbhwq:1,2014-03-04T17:00:00Z,30.4178,-88.4054,1.26,16.9,1111122 
NERRS,ioos:station:NOAA.NERRS:gndbhwq:1,2014-03-04T19:00:00Z,30.4178,-88.4054,1.24,16.0,1111122 
NERRS,ioos:station:NOAA.NERRS:gndbhwq:1,2014-03-04T20:00:00Z,30.4178,-88.4054,1.2,15.3,1111122 
NERRS,ioos:station:NOAA.NERRS:gndbhwq:1,2014-03-04T21:00:00Z,30.4178,-88.4054,1.13,15.6,1111122 
NERRS,ioos:station:NOAA.NERRS:gndbhwq:1,2014-03-04T22:00:00Z,30.4178,-88.4054,1.19,15.7,1111122 
NERRS,ioos:station:NOAA.NERRS:gndbhwq:1,2014-03-04T23:00:00Z,30.4178,-88.4054,1.08,15.7,1111122 
NERRS,ioos:station:NOAA.NERRS:gndbhwq:1,2014-03-05T00:00:00Z,30.4178,-88.4054,0.98,15.2,1111122 
NERRS,ioos:station:NOAA.NERRS:gndbhwq:1,2014-03-05T01:00:00Z,30.4178,-88.4054,0.95,15.1,1111122 
NERRS,ioos:station:NOAA.NERRS:gndbhwq:1,2014-03-06T15:00:00Z,30.4178,-88.4054,1.29,14.4,1111122 
NERRS,ioos:station:NOAA.NERRS:gndbhwq:1,2014-03-06T16:00:00Z,30.4178,-88.4054,1.37,14.4,1111122 
NERRS,ioos:station:NOAA.NERRS:gndbhwq:1,2014-03-06T17:00:00Z,30.4178,-88.4054,1.35,14.4,1111122 
NERRS,ioos:station:NOAA.NERRS:gndbhwq:1,2014-03-06T18:00:00Z,30.4178,-88.4054,1.39,14.3,1111122 
NERRS,ioos:station:NOAA.NERRS:gndbhwq:1,2014-03-06T19:00:00Z,30.4178,-88.4054,1.35,14.3,1111122 
NERRS,ioos:station:NOAA.NERRS:gndbhwq:1,2014-03-06T20:00:00Z,30.4178,-88.4054,1.39,14.3,1111122 
NERRS,ioos:station:NOAA.NERRS:gndbhwq:1,2014-03-06T21:00:00Z,30.4178,-88.4054,1.3,14.2,1111122 
NERRS,ioos:station:NOAA.NERRS:gndbhwq:1,2014-03-06T22:00:00Z,30.4178,-88.4054,1.3,14.2,1111122 
NERRS,ioos:station:NOAA.NERRS:gndbhwq:1,2014-03-06T23:00:00Z,30.4178,-88.4054,1.23,14.1,1111122 
NERRS,ioos:station:NOAA.NERRS:gndbhwq:1,2014-03-07T00:00:00Z,30.4178,-88.4054,1.13,14.1,1111122 
NERRS,ioos:station:NOAA.NERRS:gndbhwq:1,2014-03-07T01:00:00Z,30.4178,-88.4054,1.08,14.1,1111122 
NERRS,ioos:station:NOAA.NERRS:gndbhwq:1,2014-03-07T02:00:00Z,30.4178,-88.4054,0.91,14.0,1111122 
NERRS,ioos:station:NOAA.NERRS:gndbhwq:1,2014-03-07T03:00:00Z,30.4178,-88.4054,0.96,14.1,1111122 
NERRS,ioos:station:NOAA.NERRS:gndbhwq:1,2014-03-07T04:00:00Z,30.4178,-88.4054,0.82,13.8,1111122 
NERRS,ioos:station:NOAA.NERRS:gndbhwq:1,2014-03-07T05:00:00Z,30.4178,-88.4054,0.94,14.0,1111122 
NERRS,ioos:station:NOAA.NERRS:gndbhwq:1,2014-03-07T06:00:00Z,30.4178,-88.4054,0.87,13.9,1111122 
NERRS,ioos:station:NOAA.NERRS:gndbhwq:1,2014-03-07T07:00:00Z,30.4178,-88.4054,0.93,13.9,1111122 
NERRS,ioos:station:NOAA.NERRS:gndbhwq:1,2014-03-07T08:00:00Z,30.4178,-88.4054,0.82,13.6,1111122 
NERRS,ioos:station:NOAA.NERRS:gndbhwq:1,2014-03-07T09:00:00Z,30.4178,-88.4054,0.92,13.8,1111122 
NERRS,ioos:station:NOAA.NERRS:gndbhwq:1,2014-03-07T10:00:00Z,30.4178,-88.4054,0.84,13.6,1111122 
NERRS,ioos:station:NOAA.NERRS:gndbhwq:1,2014-03-07T11:00:00Z,30.4178,-88.4054,0.95,13.8,1111122 
NERRS,ioos:station:NOAA.NERRS:gndbhwq:1,2014-03-07T12:00:00Z,30.4178,-88.4054,0.93,13.7,1111122 
NERRS,ioos:station:NOAA.NERRS:gndbhwq:1,2014-03-07T13:00:00Z,30.4178,-88.4054,0.95,13.6,1111122 
NERRS,ioos:station:NOAA.NERRS:gndbhwq:1,2014-03-07T14:00:00Z,30.4178,-88.4054,1.03,13.7,1111122 
NERRS,ioos:station:NOAA.NERRS:gndbhwq:1,2014-03-07T15:00:00Z,30.4178,-88.4054,1.11,13.6,1111122 
NERRS,ioos:station:NOAA.NERRS:gndbhwq:1,2014-03-07T16:00:00Z,30.4178,-88.4054,1.15,13.5,1111122 
NERRS,ioos:station:NOAA.NERRS:gndbhwq:1,2014-03-07T17:00:00Z,30.4178,-88.4054,1.3,13.4,1111122 
NERRS,ioos:station:NOAA.NERRS:gndbhwq:1,2014-03-07T18:00:00Z,30.4178,-88.4054,1.35,13.4,1111122 
NERRS,ioos:station:NOAA.NERRS:gndbhwq:1,2014-03-07T19:00:00Z,30.4178,-88.4054,1.3,13.4,1111122 
NERRS,ioos:station:NOAA.NERRS:gndbhwq:1,2014-03-07T20:00:00Z,30.4178,-88.4054,1.42,13.4,1111122 
NERRS,ioos:station:NOAA.NERRS:gndbhwq:1,2014-03-07T21:00:00Z,30.4178,-88.4054,1.34,13.3,1111122 
NERRS,ioos:station:NOAA.NERRS:gndbhwq:1,2014-03-07T23:00:00Z,30.4178,-88.4054,1.2,13.2,1111122 
NERRS,ioos:station:NOAA.NERRS:gndbhwq:1,2014-03-08T00:00:00Z,30.4178,-88.4054,1.2,13.2,1111122 
NERRS,ioos:station:NOAA.NERRS:gndbhwq:1,2014-03-08T01:00:00Z,30.4178,-88.4054,1.14,13.2,1111122 
NERRS,ioos:station:NOAA.NERRS:gndbhwq:1,2014-03-08T02:00:00Z,30.4178,-88.4054,1.09,13.0,1111122 
NERRS,ioos:station:NOAA.NERRS:gndbhwq:1,2014-03-08T03:00:00Z,30.4178,-88.4054,1.05,13.1,1111122 
NERRS,ioos:station:NOAA.NERRS:gndbhwq:1,2014-03-08T04:00:00Z,30.4178,-88.4054,1.02,13.1,1111122 
NERRS,ioos:station:NOAA.NERRS:gndbhwq:1,2014-03-08T05:00:00Z,30.4178,-88.4054,0.97,13.2,1111122 
NERRS,ioos:station:NOAA.NERRS:gndbhwq:1,2014-03-08T06:00:00Z,30.4178,-88.4054,0.88,12.8,1111122 
NERRS,ioos:station:NOAA.NERRS:gndbhwq:1,2014-03-08T07:00:00Z,30.4178,-88.4054,0.89,13.0,1111122 
NERRS,ioos:station:NOAA.NERRS:gndbhwq:1,2014-03-08T08:00:00Z,30.4178,-88.4054,0.81,12.7,1111122 
NERRS,ioos:station:NOAA.NERRS:gndbhwq:1,2014-03-08T09:00:00Z,30.4178,-88.4054,0.87,12.9,1111122 
NERRS,ioos:station:NOAA.NERRS:gndbhwq:1,2014-03-08T10:00:00Z,30.4178,-88.4054,0.87,13.0,1111122 
NERRS,ioos:station:NOAA.NERRS:gndbhwq:1,2014-03-08T11:00:00Z,30.4178,-88.4054,0.9,12.8,1111122 
NERRS,ioos:station:NOAA.NERRS:gndbhwq:1,2014-03-08T12:00:00Z,30.4178,-88.4054,0.97,12.7,1111122 
NERRS,ioos:station:NOAA.NERRS:gndbhwq:1,2014-03-08T13:00:00Z,30.4178,-88.4054,0.97,12.9,1111122 
NERRS,ioos:station:NOAA.NERRS:gndbhwq:1,2014-03-08T14:00:00Z,30.4178,-88.4054,1.07,12.7,1111122 
NERRS,ioos:station:NOAA.NERRS:gndbhwq:1,2014-03-08T15:00:00Z,30.4178,-88.4054,1.1,12.5,1111122 
NERRS,ioos:station:NOAA.NERRS:gndbhwq:1,2014-03-08T16:00:00Z,30.4178,-88.4054,1.19,12.5,1111122 
NERRS,ioos:station:NOAA.NERRS:gndbhwq:1,2014-03-08T17:00:00Z,30.4178,-88.4054,1.19,12.4,1111122 
NERRS,ioos:station:NOAA.NERRS:gndbhwq:1,2014-03-08T18:00:00Z,30.4178,-88.4054,1.26,12.4,1111122 
NERRS,ioos:station:NOAA.NERRS:gndbhwq:1,2014-03-08T19:00:00Z,30.4178,-88.4054,1.27,12.2,1111122 
NERRS,ioos:station:NOAA.NERRS:gndbhwq:1,2014-03-08T20:00:00Z,30.4178,-88.4054,1.24,12.2,1111122 
NERRS,ioos:station:NOAA.NERRS:gndbhwq:1,2014-03-08T21:00:00Z,30.4178,-88.4054,1.26,12.2,1111122 
NERRS,ioos:station:NOAA.NERRS:gndbhwq:1,2014-03-08T22:00:00Z,30.4178,-88.4054,1.23,11.9,1111122 
NERRS,ioos:station:NOAA.NERRS:gndbhwq:1,2014-03-08T23:00:00Z,30.4178,-88.4054,1.3,12.1,1111122 
NERRS,ioos:station:NOAA.NERRS:gndbhwq:1,2014-03-09T00:00:00Z,30.4178,-88.4054,1.27,12.0,1111122 
NERRS,ioos:station:NOAA.NERRS:gndbhwq:1,2014-03-09T01:00:00Z,30.4178,-88.4054,1.28,11.8,1111122 
NERRS,ioos:station:NOAA.NERRS:gndbhwq:1,2014-03-09T03:00:00Z,30.4178,-88.4054,1.11,11.8,1111122 
NERRS,ioos:station:NOAA.NERRS:gndbhwq:1,2014-03-09T11:00:00Z,30.4178,-88.4054,0.95,12.2,1111122 
NERRS,ioos:station:NOAA.NERRS:gndbhwq:1,2014-03-09T12:00:00Z,30.4178,-88.4054,0.99,12.2,1111122 
NERRS,ioos:station:NOAA.NERRS:gndbhwq:1,2014-03-09T13:00:00Z,30.4178,-88.4054,1.04,12.2,1111122 
NERRS,ioos:station:NOAA.NERRS:gndbhwq:1,2014-03-09T14:00:00Z,30.4178,-88.4054,1.08,12.2,1111122 
NERRS,ioos:station:NOAA.NERRS:gndbhwq:1,2014-03-09T15:00:00Z,30.4178,-88.4054,1.2,12.4,1111122 
NERRS,ioos:station:NOAA.NERRS:gndbhwq:1,2014-03-09T16:00:00Z,30.4178,-88.4054,1.19,12.4,1111122 
NERRS,ioos:station:NOAA.NERRS:gndbhwq:1,2014-03-09T17:00:00Z,30.4178,-88.4054,1.23,13.2,1111122 
NERRS,ioos:station:NOAA.NERRS:gndbhwq:1,2014-03-09T18:00:00Z,30.4178,-88.4054,1.24,13.2,1111122 
NERRS,ioos:station:NOAA.NERRS:gndbhwq:1,2014-03-09T19:00:00Z,30.4178,-88.4054,1.29,14.5,1111122 
NERRS,ioos:station:NOAA.NERRS:gndbhwq:1,2014-03-09T21:00:00Z,30.4178,-88.4054,1.29,12.9,1111122 
NERRS,ioos:station:NOAA.NERRS:gndbhwq:1,2014-03-09T22:00:00Z,30.4178,-88.4054,1.31,12.6,1111122 
NERRS,ioos:station:NOAA.NERRS:gndbhwq:1,2014-03-09T23:00:00Z,30.4178,-88.4054,1.24,12.7,1111122 
NERRS,ioos:station:NOAA.NERRS:gndbhwq:1,2014-03-10T00:00:00Z,30.4178,-88.4054,1.28,13.1,1111122 
NERRS,ioos:station:NOAA.NERRS:gndbhwq:1,2014-03-10T01:00:00Z,30.4178,-88.4054,1.21,13.6,1111122 
NERRS,ioos:station:NOAA.NERRS:gndbhwq:1,2014-03-10T02:00:00Z,30.4178,-88.4054,1.24,15.3,1111122 
NERRS,ioos:station:NOAA.NERRS:gndbhwq:1,2014-03-10T03:00:00Z,30.4178,-88.4054,1.17,15.3,1111122 
NERRS,ioos:station:NOAA.NERRS:gndbhwq:1,2014-03-10T04:00:00Z,30.4178,-88.4054,1.12,15.1,1111122 
NERRS,ioos:station:NOAA.NERRS:gndbhwq:1,2014-03-10T05:00:00Z,30.4178,-88.4054,1.01,15.4,1111122 
NERRS,ioos:station:NOAA.NERRS:gndbhwq:1,2014-03-10T06:00:00Z,30.4178,-88.4054,0.99,15.5,1111122 
NERRS,ioos:station:NOAA.NERRS:gndbhwq:1,2014-03-10T07:00:00Z,30.4178,-88.4054,0.93,15.4,1111122 
NERRS,ioos:station:NOAA.NERRS:gndbhwq:1,2014-03-10T08:00:00Z,30.4178,-88.4054,0.9,15.4,1111122 
NERRS,ioos:station:NOAA.NERRS:gndbhwq:1,2014-03-10T09:00:00Z,30.4178,-88.4054,0.88,16.9,1111122 
NERRS,ioos:station:NOAA.NERRS:gndbhwq:1,2014-03-10T10:00:00Z,30.4178,-88.4054,0.88,16.7,1111122 
NERRS,ioos:station:NOAA.NERRS:gndbhwq:1,2014-03-10T11:00:00Z,30.4178,-88.4054,0.91,18.2,1111122 
NERRS,ioos:station:NOAA.NERRS:gndbhwq:1,2014-03-10T12:00:00Z,30.4178,-88.4054,0.9,16.9,1111122 
NERRS,ioos:station:NOAA.NERRS:gndbhwq:1,2014-03-10T13:00:00Z,30.4178,-88.4054,1.02,18.2,1111122 
NERRS,ioos:station:NOAA.NERRS:gndbhwq:1,2014-03-10T14:00:00Z,30.4178,-88.4054,1.05,18.4,1111122 
NERRS,ioos:station:NOAA.NERRS:gndbhwq:1,2014-03-10T15:00:00Z,30.4178,-88.4054,1.09,18.3,1111122 
NERRS,ioos:station:NOAA.NERRS:gndbhwq:1,2014-03-10T16:00:00Z,30.4178,-88.4054,1.17,18.1,1111122 
NERRS,ioos:station:NOAA.NERRS:gndbhwq:1,2014-03-10T17:00:00Z,30.4178,-88.4054,1.16,18.4,1111122 
NERRS,ioos:station:NOAA.NERRS:gndbhwq:1,2014-03-10T18:00:00Z,30.4178,-88.4054,1.19,17.8,1111122 
NERRS,ioos:station:NOAA.NERRS:gndbhwq:1,2014-03-10T19:00:00Z,30.4178,-88.4054,1.28,17.9,1111122 
NERRS,ioos:station:NOAA.NERRS:gndbhwq:1,2014-03-10T20:00:00Z,30.4178,-88.4054,1.28,17.8,1111122 
NERRS,ioos:station:NOAA.NERRS:gndbhwq:1,2014-03-10T21:00:00Z,30.4178,-88.4054,1.29,17.4,1111122 
NERRS,ioos:station:NOAA.NERRS:gndbhwq:1,2014-03-10T22:00:00Z,30.4178,-88.4054,1.31,16.8,1111122 
NERRS,ioos:station:NOAA.NERRS:gndbhwq:1,2014-03-10T23:00:00Z,30.4178,-88.4054,1.31,15.4,1111122 
NERRS,ioos:station:NOAA.NERRS:gndbhwq:1,2014-03-11T00:00:00Z,30.4178,-88.4054,1.31,14.9,1111122 
NERRS,ioos:station:NOAA.NERRS:gndbhwq:1,2014-03-11T01:00:00Z,30.4178,-88.4054,1.29,16.3,1111122 
NERRS,ioos:station:NOAA.NERRS:gndbhwq:1,2014-03-11T02:00:00Z,30.4178,-88.4054,1.26,17.1,1111122 
NERRS,ioos:station:NOAA.NERRS:gndbhwq:1,2014-03-11T03:00:00Z,30.4178,-88.4054,1.24,17.4,1111122 
NERRS,ioos:station:NOAA.NERRS:gndbhwq:1,2014-03-11T04:00:00Z,30.4178,-88.4054,1.23,18.0,1111122 
NERRS,ioos:station:NOAA.NERRS:gndbhwq:1,2014-03-11T05:00:00Z,30.4178,-88.4054,1.08,17.5,1111122 
NERRS,ioos:station:NOAA.NERRS:gndbhwq:1,2014-03-11T06:00:00Z,30.4178,-88.4054,1.07,17.6,1111122 
NERRS,ioos:station:NOAA.NERRS:gndbhwq:1,2014-03-11T07:00:00Z,30.4178,-88.4054,0.98,17.3,1111122 
NERRS,ioos:station:NOAA.NERRS:gndbhwq:1,2014-03-11T08:00:00Z,30.4178,-88.4054,0.95,16.7,1111122 
NERRS,ioos:station:NOAA.NERRS:gndbhwq:1,2014-03-11T09:00:00Z,30.4178,-88.4054,0.89,17.0,1111122 
NERRS,ioos:station:NOAA.NERRS:gndbhwq:1,2014-03-11T10:00:00Z,30.4178,-88.4054,0.89,16.7,1111122 
NERRS,ioos:station:NOAA.NERRS:gndbhwq:1,2014-03-11T11:00:00Z,30.4178,-88.4054,0.85,16.4,1111122 
NERRS,ioos:station:NOAA.NERRS:gndbhwq:1,2014-03-11T12:00:00Z,30.4178,-88.4054,0.9,16.8,1111122 
NERRS,ioos:station:NOAA.NERRS:gndbhwq:1,2014-03-11T13:00:00Z,30.4178,-88.4054,0.95,17.3,1111122 
NERRS,ioos:station:NOAA.NERRS:gndbhwq:1,2014-03-11T15:00:00Z,30.4178,-88.4054,1.05,17.4,1111122 
NERRS,ioos:station:NOAA.NERRS:gndbhwq:1,2014-03-11T16:00:00Z,30.4178,-88.4054,1.1,17.9,1111122 
NERRS,ioos:station:NOAA.NERRS:gndbhwq:1,2014-03-11T17:00:00Z,30.4178,-88.4054,1.12,17.7,1111122 
NERRS,ioos:station:NOAA.NERRS:gndbhwq:1,2014-03-11T18:00:00Z,30.4178,-88.4054,1.14,17.3,1111122 
NERRS,ioos:station:NOAA.NERRS:gndbhwq:1,2014-03-11T19:00:00Z,30.4178,-88.4054,1.22,17.6,1111122 
NERRS,ioos:station:NOAA.NERRS:gndbhwq:1,2014-03-11T20:00:00Z,30.4178,-88.4054,1.26,17.3,1111122 
NERRS,ioos:station:NOAA.NERRS:gndbhwq:1,2014-03-11T21:00:00Z,30.4178,-88.4054,1.29,17.3,1111122 
NERRS,ioos:station:NOAA.NERRS:gndbhwq:1,2014-03-11T22:00:00Z,30.4178,-88.4054,1.31,17.3,1111122 
NERRS,ioos:station:NOAA.NERRS:gndbhwq:1,2014-03-11T23:00:00Z,30.4178,-88.4054,1.38,17.3,1111122 
NERRS,ioos:station:NOAA.NERRS:gndbhwq:1,2014-03-12T00:00:00Z,30.4178,-88.4054,1.41,17.3,1111122 
NERRS,ioos:station:NOAA.NERRS:gndbhwq:1,2014-03-12T01:00:00Z,30.4178,-88.4054,1.42,17.3,1111122 
NERRS,ioos:station:NOAA.NERRS:gndbhwq:1,2014-03-12T02:00:00Z,30.4178,-88.4054,1.34,17.3,1111122 
NERRS,ioos:station:NOAA.NERRS:gndbhwq:1,2014-03-12T03:00:00Z,30.4178,-88.4054,1.38,17.4,1111122 
NERRS,ioos:station:NOAA.NERRS:gndbhwq:1,2014-03-12T04:00:00Z,30.4178,-88.4054,1.38,17.1,1111122 
NERRS,ioos:station:NOAA.NERRS:gndbhwq:1,2014-03-12T05:00:00Z,30.4178,-88.4054,1.31,17.2,1111122 
NERRS,ioos:station:NOAA.NERRS:gndbhwq:1,2014-03-12T06:00:00Z,30.4178,-88.4054,1.13,16.9,1111122 
NERRS,ioos:station:NOAA.NERRS:gndbhwq:1,2014-03-12T07:00:00Z,30.4178,-88.4054,1.09,16.9,1111122 
NERRS,ioos:station:NOAA.NERRS:gndbhwq:1,2014-03-12T08:00:00Z,30.4178,-88.4054,1.02,17.0,1111122 
NERRS,ioos:station:NOAA.NERRS:gndbhwq:1,2014-03-12T09:00:00Z,30.4178,-88.4054,1.1,17.4,1111122 
NERRS,ioos:station:NOAA.NERRS:gndbhwq:1,2014-03-12T10:00:00Z,30.4178,-88.4054,1.02,17.2,1111122 
NERRS,ioos:station:NOAA.NERRS:gndbhwq:1,2014-03-12T11:00:00Z,30.4178,-88.4054,1.01,17.0,1111122 
NERRS,ioos:station:NOAA.NERRS:gndbhwq:1,2014-03-12T12:00:00Z,30.4178,-88.4054,1.04,17.5,1111122 
NERRS,ioos:station:NOAA.NERRS:gndbhwq:1,2014-03-12T13:00:00Z,30.4178,-88.4054,0.96,17.2,1111122 
NERRS,ioos:station:NOAA.NERRS:gndbhwq:1,2014-03-12T14:00:00Z,30.4178,-88.4054,1.02,17.1,1111122 
NERRS,ioos:station:NOAA.NERRS:gndbhwq:1,2014-03-12T15:00:00Z,30.4178,-88.4054,1.1,17.0,1111122 
NERRS,ioos:station:NOAA.NERRS:gndbhwq:1,2014-03-12T16:00:00Z,30.4178,-88.4054,1.13,17.1,1111122 
NERRS,ioos:station:NOAA.NERRS:gndbhwq:1,2014-03-12T17:00:00Z,30.4178,-88.4054,1.21,17.0,1111122 
NERRS,ioos:station:NOAA.NERRS:gndbhwq:1,2014-03-12T19:00:00Z,30.4178,-88.4054,1.16,17.0,1111122 
NERRS,ioos:station:NOAA.NERRS:gndbhwq:1,2014-03-12T20:00:00Z,30.4178,-88.4054,1.14,17.1,1111122 
NERRS,ioos:station:NOAA.NERRS:gndbhwq:1,2014-03-12T21:00:00Z,30.4178,-88.4054,1.12,17.3,1111122 
NERRS,ioos:station:NOAA.NERRS:gndbhwq:1,2014-03-12T22:00:00Z,30.4178,-88.4054,1.03,16.9,1111122 
NERRS,ioos:station:NOAA.NERRS:gndbhwq:1,2014-03-12T23:00:00Z,30.4178,-88.4054,1.1,17.1,1111122 
NERRS,ioos:station:NOAA.NERRS:gndbhwq:1,2014-03-13T00:00:00Z,30.4178,-88.4054,1.06,17.3,1111122 
NERRS,ioos:station:NOAA.NERRS:gndbhwq:1,2014-03-13T01:00:00Z,30.4178,-88.4054,1.07,16.9,1111122 
NERRS,ioos:station:NOAA.NERRS:gndbhwq:1,2014-03-13T02:00:00Z,30.4178,-88.4054,1.12,17.4,1111122 
NERRS,ioos:station:NOAA.NERRS:gndbhwq:1,2014-03-13T03:00:00Z,30.4178,-88.4054,0.99,16.9,1111122 
NERRS,ioos:station:NOAA.NERRS:gndbhwq:1,2014-03-13T04:00:00Z,30.4178,-88.4054,1.02,17.1,1111122 
NERRS,ioos:station:NOAA.NERRS:gndbhwq:1,2014-03-13T05:00:00Z,30.4178,-88.4054,0.94,16.9,1111122 
NERRS,ioos:station:NOAA.NERRS:gndbhwq:1,2014-03-13T06:00:00Z,30.4178,-88.4054,0.91,16.6,1111122 
NERRS,ioos:station:NOAA.NERRS:gndbhwq:1,2014-03-13T07:00:00Z,30.4178,-88.4054,0.91,16.6,1111122 